COSMOS 2251 DEB, 34732

Orbit data source: Space-Track

COSMOS 2251 DEB, 34732 is space debris in LEO originally from a launch on Wed, 16 Jun 1993 UTC launched from the Plesetsk Missile And Space Complex (PKMTR). The debris from Iridium 33, an American commercial communications satellite, has been tracked extensively since its accidental collision with the defunct Russian satellite Cosmos 2251 in 2009. This event, occurring at high speed in low Earth orbit (LEO), generated thousands of pieces of space debris, significantly increasing the risk of further collisions. The Iridium 33 debris cloud has impacted space traffic management and orbital debris mitigation strategies, making it a subject of ongoing study in space situational awareness.

Loading next visibility...
Identifier
34732, 1993-036ZA
Orbit
LEO
Country
Flag of CISCIS
Related business
Manufacturer
Unknown
Mission
Spacecraft
Bus & Motor
Unknown
Mass
Unknown
Launch date (UTC)
1993-06-16 (33 years ago)
Launch vehicle
Unknown
Launch site
Plesetsk Missile And Space Complex (PKMTR)
Object type
Payload
Rocket body
Debris
Shape & HBR
Unknown shape, 0.1 m
Radar Cross Section
Medium (>0.1 m² and <1 m²)

Expand to show TLE details & history
Last TLE update: 19 hours ago

TLE from 19 hours ago
0 COSMOS 2251 DEB
1 34732U 93036ZA  26207.78973020  .00000409  00000-0  11777-3 0  9992
2 34732  74.0445  30.6970 0038569 124.8255 248.9445 14.47496474914143
Epoch: 2026-07-26T18:57Z
TLE epoch observation values (Epoch: 2026-07-26T18:57:12.689Z)
Latitude
12.80254°
Longitude
165.61667°
Altitude
745.655 km
Speed
7.478 km/s
True Right ascension
02h 17m 36s
True Declination
12° 43' 42"
Sunlit
Object was in daylight at epoch
Visualization orbit readout
Latitude
Unknown
Longitude
Unknown
Altitude
Unknown
Speed
Unknown
Apparent Right ascension
Unknown
Apparent Declination
Unknown
Sunlit
N/A
Visualization observer readout
Local Sidereal Time
03:07:13
Azimuth
Unknown
Elevation
Unknown
Doppler factor
Unknown
Orbital elements
Apogee altitude
758.869 km
Perigee altitude
704.027 km
Semi-major axis
7,109.585 km
Eccentricity
0.00386
Inclination
74.0445°
RAAN
30.697°
Arg. of periapsis
124.8255°
True anomaly
248.53276°
Mean anomaly
248.9445°
Eccentric anomaly
248.73856°
Mean motion
3.62057 °/min
Orbital period
99.43 mins
BSTAR
0.00011777
Loading maneuver chart data...
Computing Atmospheric mass density...

Documentation

Showing up to 5 results
|